Volver al catálogo

ARIANE 42P+ DEB

LostHEO
NORAD 23301·DEBRIS·🇫🇷 France

Lanzado Oct 28, 1992 desde Guiana Space Centre

Loading…

Próximos Pases (próximas 24 horas)

TLE

ObsoletoSource: Space-Track

Época: Jan 20, 2026, 01:29 UTC

1 23301U 92072D   26020.06240748  .00000257  00000-0  14379-2 0  9990
2 23301   7.3752 218.9951 6036712 334.7933   5.0540  3.73263776 19858

Sigue ARIANE 42P+ DEB en tiempo real con AllMySat

Download on the App Store